Location: Klein M�hlingen
(51.9472°N, 11.7453°E)
Time: 19:08:12
(UTC+00:00)

Envisat - Pass Details

Date: 05 October 2021
Orbit: 764 x 766 km, 98.2° (Epoch: 20 October)

Event Time Altitude Azimuth Distance (km) Brightness Sun altitude
Rises 02:44:09 0° 31° (NNE) 3,243 7.1 -24.3°
Reaches altitude 10° 02:48:24 10° 65° (ENE) 2,309 6.6 -23.7°
Maximum altitude 02:49:55 11° 83° (E) 2,220 6.4 -23.5°
Drops below altitude 10° 02:51:27 10° 101° (E) 2,304 6.2 -23.3°
Sets 02:55:39 0° 135° (SE) 3,222 6.5 -22.7°
